Location: Gloden
(48.4833°N, 15.3167°E)
Time: 07:54:21
(UTC+00:00)

COSMO-SKYMED 1 - Pass Details

Date: 15 December 2019
Orbit: 621 x 623 km, 97.9° (Epoch: 28 January)

Event Time Altitude Azimuth Distance (km) Brightness Sun altitude
Rises 05:37:55 0° 220° (SW) 2,895 5.8 -10.3°
Reaches altitude 10° 05:41:45 10° 255° (WSW) 1,997 4.7 -9.7°
Maximum altitude 05:43:05 11° 273° (W) 1,917 4.5 -9.5°
Enters shadow 05:43:24 11° 278° (W) 1,922 4.5 -9.5°
